Regional Weather Roundup
Issued by NWS

Home | Current Version | Previous Version | Text Only | Print | Product List | Glossary On
Versions: 1 2 3 4 5 6 7 8 9 10 11 12 13 14 15 16 17 18 19 20 21 22 23 24 25 26 27 28 29 30 31 32 33 34 35 36 37 38 39 40 41 42 43 44 45 46 47 48 49 50
000
ASUS46 KLOX 290712
RWRCA

SOUTHERN CALIFORNIA WEATHER ROUNDUP
NATIONAL WEATHER SERVICE OXNARD CALIFORNIA
1200 AM PDT SUN MAR 29 2015

NOTE: "FAIR" INDICATES FEW OR NO CLOUDS BELOW 12,000 FEET WITH NO
SIGNIFICANT WEATHER AND/OR OBSTRUCTIONS TO VISIBILITY.

  -  STATIONS PRECEEDED BY AN ASTERISK (*) ARE NOT NWS OR FAA
     STATIONS AND ARE NOT SUBJECT TO NWS AND FAA QUALITY CONTROL.

CAZ041-042-087-290800-
LA AND ORANGE COUNTY COASTAL AREAS


CITY           SKY/WX    TMP DP  RH WIND       PRES   REMARKS
L.A. DOWNTOWN  CLEAR     61  57  87 CALM      30.05R
L.A. AIRPORT   PTCLDY    59  57  93 SW3       30.05F
LONG BEACH     PTCLDY    62  57  83 NW3       30.04F

CITY           SKY/WX    TMP DP  RH WIND       PRES   REMARKS
AVALON           N/A     55 N/A N/A MISG        N/A
FULLERTON      PTCLDY    64  57  78 CALM      30.04S
*GETTY CENTER    N/A    N/A N/A N/A N5          N/A
HAWTHORNE      CLEAR     62  58  86 SW3       30.05S
*LOS ALAMITOS  FAIR      59  57  92 CALM      30.04S
*REDONDO BEACH   N/A     59  56  89 CALM      30.05S
SANTA ANA      PTCLDY    61  58  90 S3        30.05S
STA MONICA APT CLOUDY    61  59  94 CALM      30.05S FOG
*UCLA            N/A     59  50  72 CALM      30.02F

$$

CAZ547-548-048-290800-
LA COUNTY VALLEYS AND INLAND EMPIRE


CITY           SKY/WX    TMP DP  RH WIND       PRES   REMARKS
BURBANK        CLEAR     65  35  33 CALM      30.05S
VAN NUYS       CLEAR     65  41  41 CALM      30.05S

CITY           SKY/WX    TMP DP  RH WIND       PRES   REMARKS
CORONA AIRPORT SUNNY     53  49  86 CALM      30.06S
*CHATSWORTH      N/A     62  33  33 CALM      30.04S
CHINO          CLEAR     59  50  72 CALM      30.07R
*CLAREMONT       N/A     63  36  37 N3          N/A
MARCH AFB      PTCLDY    58  34  41 CALM      30.08S
*NORTHRIDGE      N/A     61  34  36 CALM        N/A
ONTARIO        PTCLDY    67  49  52 CALM      30.06S
*PASADENA        N/A     66  39  37 E1          N/A
RIVERSIDE      CLEAR     64  38  38 CALM      30.06S
SAN BERNARDINO NOT AVBL
*WHITEMAN AP   NOT AVBL
*WOODLAND HILL   N/A     57  39  51 SE1         N/A

$$

CAZ054-055-290800-
LA AND SAN BERNARDINO COUNTY MOUNTAINS


CITY           SKY/WX    TMP DP  RH WIND       PRES   REMARKS
*ACTON           N/A     52  24  33 CALM        N/A
*BIG BEAR AIRP SUNNY     34  18  51 CALM      30.33S
*BIG PINES       N/A     50   1  13 CALM        N/A
MT WILSON NWS    N/A     55   0  10 S5          N/A
SANDBERG       PTCLDY    58  36  43 NW16      30.21S

$$

CAZ028-029-059-060-099-290800-
ANTELOPE VALLEY AND SURROUNDING AREAS


CITY           SKY/WX    TMP DP  RH WIND       PRES   REMARKS
LANCASTER      CLEAR     61  34  36 W15       30.11R
PALMDALE       CLEAR     57  22  25 CALM      30.11S

CITY           SKY/WX    TMP DP  RH WIND       PRES   REMARKS
29 PALMS       PTCLDY    71  24  17 W8        30.11S
BARSTOW/DAGGET CLEAR     68  18  14 W14       30.06S
BISHOP         PTCLDY    58  13  17 NW7       30.18R
CHINA LAKE     CLEAR     62  28  27 SW8       30.04R
EDWARDS AFB    CLEAR     59  36  42 SW10      30.07F
MOJAVE         FAIR      66  36  32 W13       30.11R
NEEDLES        CLEAR     74  23  15 CALM      29.97R
VICTORVILLE    CLEAR     61  19  20 SW7       30.13R

$$

CAZ039-040-290800-
VENTURA AND SANTA BARBARA COUNTY COAST


CITY           SKY/WX    TMP DP  RH WIND       PRES   REMARKS
CAMARILLO      CLEAR     58  53  84 CALM      30.04S
NWS OXNARD       N/A     56  50  82 CALM      30.03F
OXNARD AIRPORT CLEAR     58  55  90 CALM      30.04F FOG
*POINT MUGU    CLOUDY    58  54  86 CALM      30.05S FOG
SBA APT/GOLETA CLEAR     59  55  87 E3        30.03S
*SANTA BARBARA   N/A     62  55  78 CALM      30.11S
*VENTURA         N/A     58  49  73 CALM      30.08S

$$

CAZ044-045-290800-
VENTURA COUNTY VALLEYS


CITY           SKY/WX    TMP DP  RH WIND       PRES   REMARKS
*SIMI VALLEY     N/A     58  37  44 CALM      29.99F
*OJAI            N/A     50  42  74 CALM      29.99F
*FILLMORE        N/A     54  45  73 CALM      29.95S

$$

CAZ053-290800-
VENTURA COUNTY MOUNTAINS


CITY           SKY/WX    TMP DP  RH WIND       PRES   REMARKS
*LOCKWOOD VLY    N/A     36  28  75 MISG        N/A
*ROSE VALLEY     N/A     41  37  87 MISG        N/A

$$

CAZ034-035-036-290800-
CENTRAL COAST AND SANTA YNEZ VALLEY


CITY           SKY/WX    TMP DP  RH WIND       PRES   REMARKS
SAN LUIS OBISP CLEAR     54  50  86 CALM      30.05F
SANTA MARIA    CLEAR     54  47  77 S3        30.06F

CITY           SKY/WX    TMP DP  RH WIND       PRES   REMARKS
*CAL POLY SLO    N/A     55  52  88 CALM        N/A
*LOMPOC        CLEAR     52  45  76 CALM      30.06F
*PISMO BEACH     N/A     56  52  88 NE1       30.07R
*SANTA YNEZ    FAIR      54  43  66 E5        30.06F

$$

CAZ037-038-051-290800-
SAN LUIS OBISPO COUNTY INTERIOR AND CUYAMA VALLEY


CITY           SKY/WX    TMP DP  RH WIND       PRES   REMARKS
*CUYAMA          N/A     59  40  50 CALM      30.08R
PASO ROBLES    CLEAR     59  45  59 N5        30.10R

$$

CAZ032-033-061-290800-
SOUTHERN DESERTS


CITY           SKY/WX    TMP DP  RH WIND       PRES   REMARKS
BLYTHE         CLEAR     77  30  17 SW5       29.94S
IMPERIAL       MOCLDY    72  37  28 W7        29.93R
PALM SPRINGS   PTCLDY    77  37  23 CALM      29.97S
THERMAL        PTCLDY    80  31  16 NW10      29.91S

$$

ELSEWHERE ACROSS THE WESTERN UNITED STATES AND MEXICO


CITY           SKY/WX    TMP DP  RH WIND       PRES   REMARKS
DENVER, CO     PTCLDY    56  32  40 NW10      30.03R
GRAND CANYON,  CLEAR     32  19  58 CALM      30.30S
HONOLULU, HI   MOCLDY    72  70  94 N7        30.17R
KAHULUI, MAUI  PTCLDY    73  66  78 SE5       30.17R
LAKE TAHOE, CA PTCLDY    38  26  62 S3        30.31R
LAS VEGAS, NV  CLEAR     73  16  11 S13       29.98S
MAMMOTH LAKES, FAIR      41  14  33 W8        30.34S
MEXICO CITY, M MOCLDY    52  48  87 SW5       30.45F
PHOENIX, AZ    PTCLDY    75  28  17 E8        29.97S
PORTLAND, OR   CLOUDY    52  45  77 NE3       30.34S
RENO, NV       PTCLDY    52  16  24 CALM      30.26S
SALT LAKE CITY CLEAR     48  26  42 NW7       30.27R
SAN DIEGO, CA  MOCLDY    65  59  81 CALM      30.06S
SAN FRANCISCO, CLEAR     55  51  86 NW8       30.12R
SAN JOSE, CA   CLEAR     57  49  74 NW5       30.13R
SEATTLE, WA    CLOUDY    51  41  68 S3        30.36R
TIJUANA, MEX   CLOUDY    61  57  88 CALM      30.08S

$$

STATION/POSITION TIME  TEMP    WIND        PRES    VSBY  WAVE
                       AIR SEA DIR/SP/G                  HT/PER
                 (UTC) (F)     (DEG/KT/KT) (MB)    (MI)  (FT/S)
POINT ARGUELLO B NOT AVBL
WEST SANTA BARBA 0700   58 60  310/ 16/ 17 1016.6S         8/12
POINT CONCEPTION NOT AVBL
EAST SANTA BARBA NOT AVBL
SANTA MONICA BAY 0700   61 64  230/  4/  4 1017.6R         3/17


USA.gov is the U.S. government's official web portal to all federal, state and local government web resources and services.